Location: Gwatt
(46.7204°N, 7.6223°E)
Time: 14:47:04
(UTC+00:00)

Transit 4A - All Passes

Search period start: 25 January 2021 00:00
Search period end: 04 February 2021 00:00
Orbit: 864 x 980 km, 66.8° (Epoch: 25 January)

Date Brightness Start Highest point End Pass type
(mag) Time Alt. Az. Time Alt. Az. Time Alt. Az.
25 Jan - 00:55:47 10° NNW 01:00:21 20° NNE 01:04:50 10° ENE night (unlit)
25 Jan - 02:41:43 10° NNW 02:47:56 69° NE 02:53:55 10° SE visible
25 Jan - 04:28:59 10° NW 04:33:43 24° WSW 04:38:21 10° SSW visible
25 Jan - 17:50:49 10° S 17:57:00 53° ESE 18:03:11 10° NE visible
25 Jan - 19:37:41 10° WSW 19:43:37 38° NW 19:49:31 10° NNE visible
25 Jan - 21:28:27 10° NW 21:31:55 15° NNW 21:35:21 10° NNE visible
25 Jan - 23:18:52 10° NNW 23:21:16 12° N 23:23:39 10° NNE night (unlit)
26 Jan - 01:05:00 10° NNW 01:10:06 25° NE 01:15:03 10° E night (unlit)
26 Jan - 02:51:03 10° NW 02:57:17 87° WSW 03:03:17 10° SSE visible
26 Jan - 04:39:10 10° WNW 04:42:42 16° WSW 04:46:11 10° SW visible
26 Jan - 16:17:52 10° SE 16:20:54 14° E 16:23:57 10° ENE daylight
26 Jan - 17:59:51 10° SSW 18:06:15 74° ESE 18:12:36 10° NE visible
26 Jan - 19:47:41 10° W 19:53:13 30° NW 19:58:43 10° NNE visible
26 Jan - 21:39:01 10° NW 21:41:51 13° NNW 21:44:40 10° NNE visible
26 Jan - 23:28:17 10° NNW 23:31:14 13° NNE 23:34:08 10° NE night (unlit)
27 Jan - 01:14:12 10° NNW 01:19:45 32° NE 01:25:07 10° ESE night (unlit)
27 Jan - 03:00:27 10° NW 03:06:34 63° WSW 03:12:26 10° SSE night (unlit)
27 Jan - 16:25:20 10° SSE 16:29:53 21° ESE 16:34:25 10° ENE daylight
27 Jan - 18:09:08 10° SW 18:15:33 82° NW 18:21:58 10° NNE visible
27 Jan - 19:57:51 10° W 20:02:54 24° NW 20:07:56 10° NNE visible
27 Jan - 21:49:30 10° NNW 21:51:49 12° N 21:54:06 10° NNE visible
27 Jan - 23:37:35 10° NNW 23:41:08 15° NNE 23:44:39 10° NE night (unlit)
28 Jan - 01:23:26 10° NNW 01:29:20 42° NE 01:35:00 10° ESE night (unlit)
28 Jan - 03:09:57 10° NW 03:15:44 43° WSW 03:21:20 10° S night (unlit)
28 Jan - 16:33:31 10° SSE 16:38:55 30° ESE 16:44:19 10° NE daylight
28 Jan - 18:18:37 10° SW 18:24:57 61° NW 18:31:16 10° NNE visible
28 Jan - 20:08:11 10° WNW 20:12:40 19° NNW 20:17:08 10° NNE visible
28 Jan - 21:59:46 10° NNW 22:01:48 11° N 22:03:49 10° NNE visible
28 Jan - 23:46:50 10° NNW 23:51:00 18° NNE 23:55:05 10° ENE night (unlit)
29 Jan - 01:32:41 10° NNW 01:38:49 56° NE 01:44:43 10° SE night (unlit)
29 Jan - 03:19:37 10° NW 03:24:51 30° WSW 03:29:56 10° SSW night (unlit)
29 Jan - 16:42:06 10° S 16:48:03 42° ESE 16:54:00 10° NE daylight
29 Jan - 18:28:18 10° WSW 18:34:26 45° NW 18:40:31 10° NNE visible
29 Jan - 20:18:39 10° WNW 20:22:30 16° NNW 20:26:20 10° NNE visible
29 Jan - 22:09:40 10° NNW 22:11:48 12° N 22:13:55 10° NNE visible
29 Jan - 23:56:02 10° NNW 00:00:47 22° NNE 00:05:25 10° E night (unlit)
30 Jan - 01:42:00 10° NNW 01:48:14 77° NE 01:54:12 10° SE night (unlit)
30 Jan - 03:29:31 10° WNW 03:33:52 21° WSW 03:38:08 10° SSW night (unlit)
30 Jan - 15:11:32 10° ESE 15:12:08 10° E 15:12:44 10° E daylight
30 Jan - 16:50:58 10° SSW 16:57:14 60° ESE 17:03:30 10° NE visible
30 Jan - 18:38:11 10° WSW 18:43:59 35° NW 18:49:45 10° NNE visible
30 Jan - 20:29:11 10° NW 20:32:25 14° NNW 20:35:35 10° NNE visible
30 Jan - 22:19:14 10° NNW 22:21:47 12° N 22:24:18 10° NE visible
31 Jan - 00:05:15 10° NNW 00:10:30 27° NE 00:15:35 10° E night (unlit)
31 Jan - 01:51:22 10° NW 01:57:33 78° WSW 02:03:30 10° SSE night (unlit)
31 Jan - 03:40:00 10° WNW 03:42:50 14° W 03:45:38 10° SW night (unlit)
31 Jan - 15:17:22 10° SE 15:21:03 16° ESE 15:24:44 10° ENE daylight
31 Jan - 17:00:06 10° SSW 17:06:31 83° ESE 17:12:54 10° NE visible
31 Jan - 18:48:15 10° W 18:53:37 27° NW 18:58:57 10° NNE visible
31 Jan - 20:39:45 10° NW 20:42:21 12° N 20:44:56 10° NNE visible
31 Jan - 22:28:36 10° NNW 22:31:43 14° NNE 22:34:49 10° NE visible
01 Feb - 00:14:28 10° NNW 00:20:07 35° NE 00:25:36 10° ESE night (unlit)
01 Feb - 02:00:48 10° NW 02:06:47 55° WSW 02:12:34 10° SSE night (unlit)
01 Feb - 15:25:09 10° SSE 15:30:04 24° ESE 15:34:57 10° NE daylight
01 Feb - 17:09:27 10° SW 17:15:52 74° NW 17:22:14 10° NNE visible
01 Feb - 18:58:29 10° W 19:03:20 22° NNW 19:08:09 10° NNE visible
01 Feb - 20:50:12 10° NNW 20:52:20 12° N 20:54:27 10° NNE visible
01 Feb - 22:37:51 10° NNW 22:41:37 16° NNE 22:45:18 10° ENE visible
02 Feb - 00:23:42 10° NNW 00:29:40 46° NE 00:35:25 10° ESE night (unlit)
02 Feb - 02:10:20 10° NW 02:15:56 38° WSW 02:21:22 10° S night (unlit)
02 Feb - 15:33:29 10° S 15:39:08 34° ESE 15:44:45 10° NE daylight
02 Feb - 17:19:01 10° SW 17:25:17 54° NW 17:31:31 10° NNE visible
02 Feb - 19:08:52 10° WNW 19:13:08 18° NNW 19:17:21 10° NNE visible
02 Feb - 21:00:20 10° NNW 21:02:20 11° N 21:04:18 10° NNE visible
02 Feb - 22:47:05 10° NNW 22:51:27 19° NNE 22:55:43 10° ENE visible
03 Feb - 00:32:59 10° NNW 00:39:08 63° NE 00:45:03 10° SE night (unlit)
03 Feb - 02:20:04 10° NW 02:25:01 26° WSW 02:29:51 10° SSW night (unlit)
03 Feb - 15:42:11 10° S 15:48:16 48° ESE 15:54:21 10° NE daylight
03 Feb - 17:28:47 10° WSW 17:34:47 41° NW 17:40:46 10° NNE visible
03 Feb - 19:19:22 10° NW 19:22:59 15° NNW 19:26:34 10° NNE visible
03 Feb - 21:10:06 10° NNW 21:12:19 12° N 21:14:31 10° NNE visible
03 Feb - 22:56:17 10° NNW 23:01:12 24° NNE 23:05:59 10° E visible
